• Processing (Info)

  • MPEC 2014-V03 : 2014 UZ191

    The following Minor Planet Electronic Circular may be linked-to from your own Web pages, but must not otherwise be redistributed electronically.

    A form allowing access to any MPEC is at the bottom of this page.


    Read MPEC 2014-V02 Read MPEC 2014-V04


    M.P.E.C. 2014-V03                                Issued 2014 Nov. 1, 14:09 UT
    
         The Minor Planet Electronic Circulars contain information on unusual
             minor planets and routine data on comets.  They are published
       on behalf of Commission 20 of the International Astronomical Union by the
              Minor Planet Center, Smithsonian Astrophysical Observatory,
                              Cambridge, MA 02138, U.S.A.
    
                 Prepared using the Tamkin Foundation Computer Network
    
                                  MPC@CFA.HARVARD.EDU
                URL https://www.minorplanetcenter.net/    ISSN 1523-6714
    
                                      2014 UZ191
    
    Observations:
         K14UJ1Z* C2014 10 28.43421 02 32 33.054+01 43 56.71         21.1 wLEV003F51
         K14UJ1Z  C2014 10 28.44500 02 32 30.547+01 44 06.68         21.2 wLEV003F51
         K14UJ1Z  C2014 10 28.45572 02 32 28.018+01 44 16.76         21.1 wLEV003F51
         K14UJ1Z KC2014 10 29.23693 02 29 30.26 +01 56 29.6          21.1 RoEV003291
         K14UJ1Z KC2014 10 29.23883 02 29 29.78 +01 56 31.5          20.8 RoEV003291
         K14UJ1Z KC2014 10 29.24076 02 29 29.39 +01 56 33.6          21.2 RoEV003291
         K14UJ1Z KC2014 10 29.28179602 29 19.33 +01 57 11.0          21.7 VuEV003H21
         K14UJ1Z KC2014 10 29.28896702 29 17.62 +01 57 17.2          21.2 VuEV003H21
         K14UJ1Z KC2014 10 29.29707502 29 15.72 +01 57 25.3          21.4 VuEV003H21
         K14UJ1Z _C2014 10 29.32567202 29 10.191+01 57 57.52         20.7 RtEV003568
         K14UJ1Z _C2014 10 29.32692402 29 09.897+01 57 58.74         20.8 RtEV003568
         K14UJ1Z _C2014 10 29.32817902 29 09.604+01 57 59.91         20.9 RtEV003568
         K14UJ1Z KC2014 10 31.26436 02 21 42.36 +02 29 22.1          21.1 RoEV003291
         K14UJ1Z KC2014 10 31.26630 02 21 41.88 +02 29 23.3          21.1 RoEV003291
         K14UJ1Z KC2014 10 31.26820 02 21 41.42 +02 29 25.7          21.3 RoEV003291
         K14UJ1Z KC2014 11 01.35488 02 17 28.19 +02 47 35.8          22.7 RoEV003291
         K14UJ1Z KC2014 11 01.35906 02 17 27.22 +02 47 40.3          21.7 RoEV003291
    
    Observer details:
    291 LPL/Spacewatch II.  Observer R. A. Mastaler.  1.8-m f/2.7 reflector + CCD.
    568 Mauna Kea.  Observers R. J. Wainscoat, L. Wells.  Measurers M. Micheli,
        R. J. Wainscoat.  3.6-m Canada-France-Hawaii Telescope + CCD.
    F51 Pan-STARRS 1, Haleakala.  Observers B. Gibson, T. Goggia, N. Primak,
        A. Schultz, M. Willman.  Measurers B. Bolin, K. Chambers, S. Chastel,
        L. Denneau, H. Flewelling, M. Huber, E. Magnier, E. Schunova, R. Wainscoat,
        C. Waters.  1.8-m Ritchey-Chretien + CCD.
    H21 Astronomical Research Observatory, Westfield.  Observer R. Holmes.
        Measurers T. Vorobjov, L. Buzzi, S. Foglia, T. Linder.  0.81-m f/4.0
        astrograph + CCD.
    
    Orbital elements:
    2014 UZ191                                               Earth MOID = 0.2758 AU
    Epoch 2014 Dec. 9.0 TT = JDT 2457000.5                  MPC
    M 235.30616              (2000.0)            P               Q
    n   0.85464247     Peri.  160.11677     -0.89005863     +0.34501036
    a   1.0997140      Node    43.97352     -0.45426887     -0.61699512
    e   0.3494650      Incl.   25.41016     -0.03788697     -0.70730819
    P   1.15           H   21.3           G   0.15           U   8
    Residuals in seconds of arc
    141028 F51  0.1-  0.1+    141029 H21  0.1+  0.4+    141031 291  0.5+  0.3+
    141028 F51  0.3+  0.0     141029 H21  0.3-  0.2-    141031 291  0.2+  0.4-
    141028 F51  0.0   0.0     141029 H21  0.2-  0.2+    141031 291  0.1+  0.1+
    141029 291  0.3-  0.2-    141029 568  0.0   0.2-    141101 291  0.4-  0.1-
    141029 291  0.8-  0.1-    141029 568  0.0   0.2-    141101 291  0.1+  0.2+
    141029 291  0.2+  0.1+    141029 568  0.0   0.2-
    
    Ephemeris:
    2014 UZ191               a,e,i = 1.10, 0.35, 25                  q = 0.7154
    Date    TT    R. A. (2000) Decl.     Delta      r     Elong.  Phase     V
    2014 10 02    03 45 11.3 -02 42 59   0.6191  1.4838   131.2    30.5    22.4
    ...
    2014 10 17    03 11 48.6 -00 46 11   0.5249  1.4808   152.0    18.4    21.7
    ...
    2014 10 25    02 45 17.6 +00 52 58   0.4938  1.4749   163.6    11.0    21.3
    ...
    2014 10 31    02 22 43.6 +02 25 08   0.4822  1.4685   168.5     7.8    21.1
    2014 11 01    02 18 51.4 +02 41 46   0.4813  1.4673   168.4     7.8    21.1
    2014 11 02    02 14 58.5 +02 58 41   0.4807  1.4660   168.0     8.1    21.1
    ...
    2014 11 08    01 51 54.1 +04 45 10   0.4837  1.4573   161.3    12.6    21.3
    ...
    2014 11 16    01 23 40.3 +07 12 58   0.5036  1.4432   148.7    20.9    21.6
    ...
    2014 12 01    00 45 52.3 +11 40 18   0.5786  1.4085   126.4    34.3    22.3
    
    A. U. Tomatic                (C) Copyright 2014 MPC           M.P.E.C. 2014-V03
    

    Read MPEC 2014-V02 Read MPEC 2014-V04


    MPEC number:

    Enter an MPEC number in one of the following forms:

    • 1997-B01 (the full form)
    • J97B01 (the packed version of the full form)
    • B01 (the abbreviated form)